ISS (ZARYA) 1 25544U 98067A 26160.51346515 .00007341 00000+0 13794-3 0 9996 2 25544 51.6332 338.0748 0006877 150.8507 209.2867 15.49683556570568 POISK 1 36086U 09060A 26160.51346515 .00007341 00000+0 13794-3 0 9994 2 36086 51.6332 338.0748 0006877 150.8507 209.2867 15.49683556570358 CSS (TIANHE) 1 48274U 21035A 26160.48989296 .00022144 00000+0 26420-3 0 9995 2 48274 41.4694 8.8345 0008443 15.7709 344.3391 15.60486295291961 ISS (NAUKA) 1 49044U 21066A 26160.51346515 .00007341 00000+0 13794-3 0 9992 2 49044 51.6332 338.0748 0006877 150.8507 209.2867 15.49683556570356 FREGAT DEB 1 49271U 11037PF 26151.14915702 .00018955 00000+0 30994-1 0 9992 2 49271 51.6227 53.0895 0914379 245.3590 104.9405 12.41880577222933 CSS (WENTIAN) 1 53239U 22085A 26160.48989296 .00022144 00000+0 26420-3 0 9998 2 53239 41.4694 8.8345 0008443 15.7709 344.3391 15.60486295288234 CSS (MENGTIAN) 1 54216U 22143A 26160.48989296 .00022144 00000+0 26420-3 0 9999 2 54216 41.4694 8.8345 0008443 15.7709 344.3391 15.60486295292156 HRC MONOBLOCK CAMERA 1 66052U 98067XR 26158.73746098 .00076529 00000+0 55774-3 0 9994 2 66052 51.6266 327.6637 0001454 182.7303 177.3688 15.72605662 36514 SZ-21 MODULE 1 66515U 25246C 26159.85148266 .00040731 00000+0 25860-3 0 9993 2 66515 41.4714 359.2138 0006700 299.9993 60.0186 15.75674541 32427 SOYUZ-MS 28 1 66664U 25275A 26160.51346515 .00007341 00000+0 13794-3 0 9995 2 66664 51.6332 338.0748 0006877 150.8507 209.2867 15.49683556570353 DUPLEX 1 66906U 98067XS 26160.18459825 .00035920 00000+0 40743-3 0 9993 2 66906 51.6280 329.8681 0004076 169.1375 190.9707 15.62003424 29402 ISS OBJECT XY 1 66912U 98067XY 26160.14491721 .00342487 55529-4 10139-2 0 9992 2 66912 51.6194 316.7132 0007827 282.4217 77.5913 15.91978048 29561 KNACKSAT-2 1 67683U 98067XZ 26160.21299138 .00044471 00000+0 55732-3 0 9994 2 67683 51.6310 334.5675 0010139 180.3402 179.7586 15.59248117 19032 CORAL 1 67684U 98067YA 26159.75867442 .00182222 00000+0 12503-2 0 9996 2 67684 51.6250 331.4984 0009704 202.0943 157.9639 15.73558477 19039 GXIBA-1 1 67685U 98067YB 26158.75031954 .00052644 00000+0 62566-3 0 9996 2 67685 51.6294 341.2956 0011540 172.2654 187.8520 15.60548421 18814 UITMSAT-2 1 67686U 98067YC 26160.18681528 .00072022 00000+0 75676-3 0 9993 2 67686 51.6281 332.8886 0007121 168.5183 191.5975 15.63642625 19051 LEOPARD 1 67687U 98067YD 26159.73360971 .00053486 00000+0 64740-3 0 9992 2 67687 51.6313 336.6235 0007703 159.0092 201.1219 15.60107442 18887 HMU-SAT2 1 67688U 98067YE 26159.78505260 .00069363 00000+0 77123-3 0 9990 2 67688 51.6311 335.4642 0007415 161.8346 198.2914 15.62207389 18902 CREW DRAGON 12 1 67796U 26031A 26160.51346515 .00007341 00000+0 13794-3 0 9993 2 67796 51.6332 338.0748 0006877 150.8507 209.2867 15.49683556570608 PROGRESS-MS 33 1 68319U 26058A 26160.51346515 .00007341 00000+0 13794-3 0 9994 2 68319 51.6332 338.0748 0006877 150.8507 209.2867 15.49683556570352 CYGNUS NG-24 1 68689U 26079A 26160.51346515 .00007341 00000+0 13794-3 0 9997 2 68689 51.6332 338.0748 0006877 150.8507 209.2867 15.49683556570600 PROGRESS-MS 34 1 68837U 26093A 26160.51346515 .00007341 00000+0 13794-3 0 9998 2 68837 51.6332 338.0748 0006877 150.8507 209.2867 15.49683556570605 TIANZHOU-10 1 69049U 26102A 26160.48989296 .00022144 00000+0 26420-3 0 9998 2 69049 41.4694 8.8345 0008443 15.7709 344.3391 15.60486295 4641 DRAGON CRS-34 1 69103U 26107A 26160.51346515 .00007341 00000+0 13794-3 0 9991 2 69103 51.6332 338.0748 0006877 150.8507 209.2867 15.49683556570354 SHENZHOU-23 (SZ-23) 1 69180U 26113A 26160.48989296 .00022144 00000+0 26420-3 0 9996 2 69180 41.4694 8.8345 0008443 15.7709 344.3391 15.60486295291881